Location: Branche des Alpilles
(43.6087°N, 4.6976°E)
Time: 05:21:13
(UTC+00:00)

USA 281 - Pass Details

Date: 30 November 2020
Orbit: 1074 x 1084 km, 106.0° (Epoch: 22 January)

Event Time Altitude Azimuth Distance (km) Brightness Sun altitude
Rises 18:08:04 0° 146° (SE) 3,870 5.9 -21.5°
Reaches altitude 10° 18:10:34 10° 144° (SE) 2,917 5.2 -22.0°
Maximum altitude 18:17:05 72° 62° (ENE) 1,136 3.1 -23.1°
Drops below altitude 10° 18:23:37 10° 340° (NNW) 2,926 5.6 -24.3°
Sets 18:26:09 0° 338° (NNW) 3,884 6.3 -24.8°
